DELTA 1 DEB

Satellite information

Favourite Embed

Satellite Type and Status

DEBRISIN ORBIT

Key statistics

Satellite DELTA 1 DEB at a glance.

Uptime

18288

Days in orbit

Revolutions

≈ 13.2

Per day

Orbit

SSO

Sun Synchronous Orbit

Inclination

100.0

Latest

Satellite identification and parameters

Extended collection of information and parameters for DELTA 1 DEB.

Object identification

Identified? True

Debris? True

Object name: DELTA 1 DEB

International designator: 1975-052JE

Object number (NORAD): 21678

Object ID (CCSDS): 21678

Country: UNITED STATES OF AMERICA (US)

Current information (Y/N): Y

RCS size: SMALL

Orbital parameters

Period: 109.176 minutes

Inclination: 100.0227 deg

SMA: 7566.812 km

Apoapsis: 1462.793 km

Periapsis: 914.561 km

RAAN: 107.1807 deg

Eccentricy: 0.0362261

Argument of periapsis: 31.1507 deg

Mean anomaly: 91.6974 deg

Mean motion: 13.18965173 rev/day

Mean motion (dot): 0.00000966 rev/day2

B* drag term: 0.001809 1/REarth

Two-line elements (TLE)

Creation date: July 6, 2025, 6:05 p.m.

Reference frame: TEME

Reference center: EARTH

Epoch: July 6, 2025, 7:43 a.m. UTC

TLE line 0: 0 DELTA 1 DEB

TLE line 1: 1 21678U 75052JE 25187.32178818 .00000966 00000-0 18090-2 0 9995

TLE line 2: 2 21678 100.0227 107.1807 0362261 31.1507 91.6974 13.18965173630895

Live tracking on map

Real-time ground track for satellite DELTA 1 DEB.

In-orbit conjunctions

There are no conjunctions computed for DELTA 1 DEB, at the moment. Check back to stay up to date, as we update our databases every day.

Go to all conjunctions

Associated space launch

Experimental meteorological satellite

DELTA 1 DEB was lifted into orbit during the mission ‘Delta 2910 | Nimbus 6’, on board a Delta 2910 space rocket.

The launch took place on June 12, 1975, 8:12 a.m. from Space Launch Complex 2W.

For more information about the launch, click the button.

Launch to space Delta 2910 | Nimbus 6
Delta 2910 | Nimbus 6

Agency: N/A

Status: Launch Successful

Launch date: June 12, 1975, 8:12 a.m. UTC

Rocket: Delta 2910

Launch pad: Space Launch Complex 2W

Location: Vandenberg SFB, CA, USA

...

Latest news about this satellite

There are no fresh news available about this satellite. Check back as we update our databases every day.


Newsletter sign-up

Weekly statistics, charts and insights to help you stay on top of the space industry.